Regional Weather Roundup
Issued by NWS

Home | Current Version | Previous Version | Text Only | Print | Product List | Glossary Off
Versions: 1 2 3 4 5 6 7 8 9 10 11 12 13 14 15 16 17 18 19 20 21 22 23 24 25 26 27 28 29 30 31 32 33 34 35 36 37 38 39 40 41 42 43 44 45 46 47 48 49 50

000
ASUS43 KLSX 011507
RWRMO

WEATHER SUMMARY FOR MISSOURI
NATIONAL WEATHER SERVICE SPRINGFIELD MO
900 AM CST SUN MAR 01 2015

NOTE: "FAIR" INDICATES FEW OR NO CLOUDS BELOW 12,000 FEET WITH NO
       SIGNIFICANT WEATHER AND/OR OBSTRUCTIONS TO VISIBILITY.
       CURRENT SKY AND/OR WEATHER CONDITIONS ARE NOT AVAILABLE FOR
       CHILLICOTHE AND FARMINGTON.

MOZ001>031-035>038-043-044-053-054-011600-
...NORTHERN AND WESTERN MISSOURI...

CITY           SKY/WX    TMP DP  RH WIND       PRES   REMARKS
KANSAS CTY INT PTSUNNY   24  20  84 NW6       30.39R WCI  17
KANSAS C DTWN  CLOUDY    26  20  77 N5        30.40R WCI  20
LEE`S SUMMIT   CLOUDY    24  20  84 N6        30.39R WCI  17
ST JOSEPH      MOSUNNY   22  19  89 NW6       30.41R WCI  14
CHILLICOTHE      N/A     24  19  81 N3        30.41R
KIRKSVILLE     LGT SNOW  22  19  89 CALM      30.38R FOG

$$
MOZ066>068-077>081-088>096-101>105-011600-
...SOUTHWEST MISSOURI...

CITY           SKY/WX    TMP DP  RH WIND       PRES   REMARKS
SPRINGFIELD    FOG       28  26  92 NW8       30.35R VSB 1   WCI  20
JOPLIN         CLOUDY    27  25  92 CALM      30.38S FOG

$$
MOZ032>034-039>042-045>050-055>058-069>072-011600-
...CENTRAL MISSOURI...

CITY           SKY/WX    TMP DP  RH WIND       PRES   REMARKS
COLUMBIA       CLOUDY    26  23  88 NW5       30.37R WCI  20
JEFFERSON CITY CLOUDY    26  24  92 CALM      30.40R FOG
ROLLA          CLOUDY    26  24  92 W6        30.35R FOG     WCI  19
SEDALIA        LGT SNOW  24  21  88 NW5       30.39S FOG     WCI  18
WARRENSBURG    LGT SNOW  25  21  86 CALM      30.40R
OSAGE BEACH    CLOUDY    27  25  93 CALM      30.36F

$$
MOZ051-052-059>065-011600-
...EAST CENTRAL MISSOURI...

CITY           SKY/WX    TMP DP  RH WIND       PRES   REMARKS
ST LOUIS INTL  FRZ DRZL  29  25  85 W5        30.38S FOG     WCI  24
SPIRIT OF STL  LGT SNOW  27  25  92 NW3       30.38S VSB 3/4
ST CHARLES     SNOW      26  25  96 W3        30.39R VSB 1/2

$$
MOZ072>076-082>087-097>100-106>115-011600-
...SOUTH CENTRAL AND SOUTHEAST MISSOURI...

CITY           SKY/WX    TMP DP  RH WIND       PRES   REMARKS
CAPE GIRARDEAU CLOUDY    33  31  92 CALM      30.37S FOG
FARMINGTON     CLOUDY    30  30 100 CALM      30.38R
POPLAR BLUFF   CLOUDY    33  29  85 N6        30.36F FOG     WCI  28
WEST PLAINS    CLOUDY    31  29  92 CALM      30.34R

$$



USA.gov is the U.S. government's official web portal to all federal, state and local government web resources and services.